Precipitable_Water
0.53 0.52 0.49 0.47 0.46 0.46 0.46 0.45 0.44 0.43 0.42 0.42 0.40 0.38 0.38 0.38 0.39 0.40 0.39 0.39 0.38 0.35 0.32 0.27 0.31 0.32 0.31 0.30 0.30 0.29 0.25 0.20 0.20 0.22 0.20 0.29 0.45 0.49 0.50 0.49 0.45 0.43 0.39 0.39 0.39 0.33 0.27 0.30 0.26 0.31 0.29 0.29 0.32 0.36 0.52 0.63 0.73 0.70 0.55 0.51 0.47 0.52 0.53 0.59 0.58 0.64 0.75 0.73 0.81 0.86 0.92 0.89 0.84 0.93 0.97 1.02 0.89 0.82 0.78 0.73 0.73 0.72 0.77 0.83 0.87 0.96 1.07 1.17
0.53 0.52 0.51 0.48 0.47 0.47 0.46 0.45 0.44 0.44 0.43 0.42 0.41 0.40 0.38 0.37 0.38 0.38 0.38 0.38 0.38 0.36 0.33 0.29 0.29 0.31 0.31 0.29 0.29 0.28 0.21 0.18 0.16 0.19 0.21 0.43 0.49 0.48 0.49 0.46 0.44 0.41 0.36 0.32 0.31 0.29 0.26 0.22 0.24 0.25 0.22 0.19 0.36 0.29 0.44 0.42 0.62 0.50 0.47 0.47 0.39 0.48 0.52 0.63 0.62 0.67 0.66 0.68 0.75 0.82 0.90 0.90 0.88 0.94 1.00 0.89 0.85 0.82 0.76 0.76 0.75 0.71 0.72 0.84 0.92 0.99 1.08 1.14
0.54 0.53 0.51 0.49 0.48 0.47 0.46 0.46 0.44 0.43 0.43 0.42 0.41 0.41 0.39 0.38 0.37 0.37 0.37 0.38 0.37 0.37 0.35 0.30 0.31 0.30 0.30 0.30 0.28 0.25 0.20 0.18 0.18 0.16 0.23 0.45 0.46 0.46 0.47 0.45 0.43 0.40 0.34 0.28 0.32 0.31 0.27 0.27 0.27 0.22 0.20 0.17 0.26 0.24 0.34 0.33 0.46 0.48 0.43 0.36 0.39 0.51 0.55 0.60 0.63 0.60 0.67 0.70 0.68 0.72 0.80 0.85 0.92 0.95 1.02 0.88 0.87 0.86 0.76 0.73 0.76 0.73 0.70 0.73 0.87 0.97 1.03 1.08
0.56 0.55 0.53 0.51 0.49 0.48 0.47 0.46 0.44 0.43 0.42 0.42 0.42 0.41 0.39 0.39 0.38 0.37 0.36 0.36 0.36 0.36 0.34 0.32 0.30 0.32 0.31 0.28 0.29 0.23 0.18 0.17 0.11 0.22 0.37 0.46 0.43 0.43 0.45 0.44 0.43 0.39 0.36 0.34 0.33 0.30 0.33 0.32 0.27 0.21 0.17 0.14 0.20 0.28 0.23 0.32 0.30 0.40 0.38 0.32 0.38 0.49 0.49 0.56 0.61 0.62 0.65 0.68 0.64 0.67 0.74 0.76 0.84 0.91 0.93 0.90 0.85 0.84 0.81 0.83 0.78 0.76 0.76 0.74 0.87 0.95 0.99 0.99
0.57 0.56 0.54 0.53 0.51 0.50 0.48 0.47 0.46 0.44 0.43 0.43 0.42 0.42 0.41 0.40 0.39 0.37 0.36 0.35 0.35 0.34 0.35 0.33 0.29 0.30 0.31 0.28 0.23 0.23 0.14 0.07 0.14 0.32 0.42 0.45 0.43 0.41 0.42 0.43 0.42 0.37 0.35 0.32 0.33 0.32 0.29 0.27 0.26 0.19 0.16 0.11 0.17 0.20 0.20 0.28 0.33 0.34 0.29 0.35 0.39 0.42 0.40 0.52 0.61 0.66 0.65 0.69 0.66 0.67 0.63 0.64 0.80 0.84 0.84 0.88 0.79 0.78 0.87 0.87 0.85 0.84 0.83 0.82 0.83 0.94 1.00 0.98
0.54 0.53 0.54 0.53 0.51 0.50 0.49 0.48 0.46 0.46 0.44 0.43 0.43 0.41 0.41 0.40 0.39 0.38 0.37 0.35 0.34 0.33 0.33 0.34 0.28 0.29 0.30 0.26 0.22 0.19 0.10 0.03 0.20 0.28 0.44 0.41 0.41 0.39 0.39 0.37 0.38 0.36 0.34 0.29 0.27 0.28 0.25 0.24 0.22 0.15 0.13 0.12 0.12 0.11 0.17 0.22 0.31 0.17 0.23 0.30 0.36 0.39 0.35 0.44 0.50 0.57 0.62 0.61 0.61 0.60 0.67 0.72 0.70 0.71 0.79 0.79 0.80 0.88 1.00 0.99 0.90 0.88 0.87 0.87 0.90 0.95 0.97 1.00
0.54 0.53 0.53 0.52 0.51 0.51 0.50 0.48 0.47 0.46 0.46 0.45 0.44 0.43 0.42 0.41 0.38 0.36 0.36 0.36 0.35 0.33 0.34 0.34 0.27 0.29 0.28 0.24 0.22 0.17 0.09 0.08 0.23 0.40 0.44 0.40 0.40 0.33 0.33 0.32 0.34 0.33 0.31 0.25 0.25 0.24 0.24 0.21 0.20 0.16 0.14 0.12 0.13 0.13 0.16 0.18 0.25 0.21 0.16 0.22 0.23 0.30 0.30 0.39 0.40 0.48 0.52 0.55 0.55 0.64 0.68 0.64 0.66 0.60 0.74 0.73 0.79 0.89 0.98 1.02 0.98 0.93 0.91 0.91 0.88 0.91 0.91 0.94
0.55 0.54 0.53 0.52 0.50 0.49 0.49 0.48 0.46 0.45 0.44 0.44 0.43 0.42 0.42 0.41 0.38 0.37 0.35 0.35 0.35 0.35 0.36 0.33 0.26 0.30 0.28 0.19 0.12 0.09 0.09 0.08 0.26 0.41 0.43 0.40 0.33 0.31 0.31 0.30 0.30 0.30 0.27 0.23 0.23 0.23 0.25 0.19 0.16 0.20 0.14 0.11 0.15 0.14 0.17 0.15 0.18 0.15 0.15 0.19 0.20 0.23 0.24 0.26 0.29 0.34 0.40 0.43 0.49 0.53 0.53 0.54 0.62 0.63 0.69 0.66 0.75 0.83 0.90 1.00 1.01 0.98 0.94 0.90 0.87 0.88 0.88 0.85
0.54 0.53 0.52 0.51 0.49 0.48 0.48 0.47 0.46 0.44 0.43 0.42 0.41 0.41 0.39 0.38 0.37 0.37 0.37 0.36 0.34 0.35 0.35 0.32 0.27 0.32 0.29 0.20 0.12 0.08 0.08 0.24 0.37 0.39 0.39 0.29 0.27 0.28 0.30 0.24 0.30 0.26 0.25 0.26 0.26 0.25 0.23 0.20 0.20 0.21 0.12 0.13 0.19 0.15 0.17 0.14 0.10 0.16 0.16 0.19 0.19 0.18 0.20 0.22 0.22 0.23 0.26 0.31 0.38 0.38 0.38 0.46 0.53 0.62 0.58 0.62 0.70 0.77 0.85 0.93 0.98 1.00 0.97 0.91 0.88 0.87 0.87 0.85
0.54 0.53 0.52 0.51 0.50 0.48 0.47 0.46 0.45 0.44 0.42 0.41 0.39 0.38 0.37 0.34 0.34 0.35 0.35 0.36 0.36 0.33 0.32 0.29 0.29 0.30 0.24 0.15 0.15 0.07 0.15 0.37 0.39 0.37 0.31 0.29 0.29 0.28 0.28 0.28 0.28 0.26 0.23 0.25 0.25 0.24 0.21 0.22 0.21 0.26 0.23 0.19 0.22 0.17 0.19 0.16 0.12 0.21 0.20 0.20 0.19 0.19 0.20 0.21 0.19 0.20 0.23 0.23 0.26 0.27 0.29 0.33 0.42 0.46 0.40 0.56 0.65 0.72 0.77 0.81 0.92 0.96 0.96 0.97 0.94 0.91 0.89 0.86
0.56 0.54 0.52 0.51 0.50 0.48 0.46 0.45 0.44 0.44 0.42 0.40 0.38 0.35 0.34 0.33 0.33 0.34 0.33 0.34 0.36 0.31 0.34 0.31 0.30 0.28 0.19 0.17 0.09 0.07 0.32 0.35 0.35 0.34 0.32 0.30 0.28 0.25 0.26 0.28 0.29 0.25 0.25 0.25 0.24 0.28 0.28 0.28 0.30 0.28 0.24 0.17 0.20 0.17 0.18 0.18 0.23 0.20 0.19 0.18 0.18 0.19 0.20 0.20 0.20 0.20 0.22 0.20 0.22 0.23 0.22 0.25 0.29 0.37 0.34 0.48 0.59 0.66 0.64 0.69 0.78 0.88 0.94 0.96 0.98 0.95 0.95 0.93
0.58 0.55 0.52 0.51 0.49 0.47 0.46 0.45 0.43 0.43 0.41 0.39 0.37 0.33 0.31 0.32 0.33 0.32 0.33 0.32 0.32 0.34 0.33 0.31 0.32 0.30 0.25 0.17 0.12 0.12 0.34 0.33 0.36 0.33 0.33 0.30 0.28 0.28 0.31 0.32 0.30 0.27 0.25 0.21 0.25 0.29 0.30 0.30 0.30 0.24 0.12 0.29 0.15 0.21 0.19 0.25 0.22 0.21 0.20 0.12 0.12 0.15 0.14 0.15 0.15 0.17 0.20 0.19 0.23 0.25 0.21 0.18 0.19 0.20 0.27 0.36 0.46 0.52 0.55 0.56 0.62 0.73 0.82 0.92 0.96 0.98 0.95 0.94
0.57 0.54 0.53 0.51 0.49 0.48 0.47 0.45 0.43 0.42 0.40 0.39 0.35 0.30 0.31 0.32 0.32 0.32 0.33 0.30 0.28 0.29 0.34 0.37 0.32 0.31 0.22 0.11 0.15 0.27 0.34 0.38 0.36 0.35 0.34 0.34 0.33 0.33 0.33 0.33 0.31 0.30 0.28 0.25 0.25 0.30 0.32 0.31 0.28 0.20 0.24 0.21 0.18 0.13 0.21 0.27 0.23 0.23 0.20 0.15 0.13 0.12 0.10 0.13 0.15 0.16 0.16 0.18 0.22 0.22 0.11 0.12 0.14 0.17 0.25 0.27 0.31 0.36 0.43 0.47 0.51 0.58 0.70 0.78 0.87 0.93 0.97 0.97
0.57 0.56 0.53 0.51 0.49 0.47 0.46 0.44 0.43 0.42 0.40 0.37 0.31 0.30 0.30 0.32 0.32 0.32 0.30 0.29 0.33 0.30 0.32 0.40 0.33 0.26 0.20 0.12 0.26 0.34 0.38 0.37 0.36 0.33 0.31 0.33 0.29 0.30 0.33 0.35 0.34 0.30 0.30 0.26 0.29 0.33 0.31 0.33 0.29 0.25 0.29 0.20 0.16 0.29 0.20 0.19 0.21 0.13 0.16 0.17 0.10 0.08 0.07 0.14 0.14 0.17 0.13 0.19 0.20 0.20 0.10 0.10 0.12 0.17 0.23 0.27 0.28 0.27 0.30 0.35 0.41 0.46 0.54 0.67 0.76 0.83 0.90 0.96
0.58 0.56 0.54 0.51 0.49 0.47 0.45 0.44 0.43 0.42 0.40 0.34 0.30 0.29 0.30 0.30 0.32 0.33 0.31 0.26 0.27 0.28 0.28 0.36 0.32 0.22 0.15 0.16 0.30 0.42 0.46 0.39 0.32 0.32 0.36 0.30 0.29 0.27 0.29 0.32 0.31 0.31 0.30 0.28 0.26 0.29 0.30 0.29 0.26 0.20 0.17 0.25 0.24 0.17 0.13 0.13 0.14 0.14 0.08 0.05 0.10 0.07 0.07 0.12 0.15 0.14 0.09 0.16 0.19 0.17 0.11 0.10 0.11 0.16 0.21 0.28 0.28 0.27 0.26 0.28 0.31 0.36 0.42 0.48 0.60 0.71 0.78 0.87
0.58 0.56 0.54 0.52 0.49 0.48 0.46 0.44 0.42 0.41 0.38 0.33 0.30 0.29 0.29 0.32 0.31 0.32 0.32 0.26 0.28 0.31 0.34 0.26 0.28 0.23 0.16 0.13 0.25 0.46 0.38 0.29 0.30 0.38 0.40 0.36 0.32 0.27 0.34 0.31 0.32 0.32 0.30 0.24 0.30 0.28 0.26 0.22 0.16 0.18 0.18 0.19 0.15 0.13 0.10 0.09 0.08 0.11 0.08 0.05 0.05 0.08 0.07 0.09 0.10 0.13 0.14 0.14 0.18 0.14 0.08 0.11 0.11 0.15 0.20 0.25 0.27 0.27 0.26 0.26 0.28 0.30 0.34 0.40 0.42 0.50 0.65 0.74
0.57 0.56 0.53 0.52 0.50 0.49 0.47 0.45 0.43 0.41 0.37 0.32 0.29 0.28 0.28 0.31 0.30 0.34 0.31 0.28 0.27 0.32 0.31 0.21 0.28 0.29 0.12 0.30 0.39 0.28 0.27 0.32 0.39 0.37 0.36 0.37 0.34 0.33 0.32 0.30 0.25 0.27 0.30 0.31 0.28 0.25 0.24 0.15 0.21 0.16 0.17 0.13 0.15 0.12 0.06 0.04 0.04 0.06 0.10 0.06 0.07 0.06 0.07 0.06 0.11 0.14 0.15 0.14 0.11 0.16 0.12 0.10 0.13 0.15 0.18 0.21 0.24 0.25 0.26 0.27 0.28 0.29 0.30 0.35 0.40 0.41 0.44 0.55
0.56 0.54 0.53 0.52 0.51 0.48 0.48 0.45 0.44 0.40 0.36 0.33 0.29 0.28 0.26 0.29 0.27 0.31 0.30 0.26 0.27 0.31 0.35 0.35 0.32 0.22 0.14 0.27 0.17 0.21 0.32 0.31 0.33 0.34 0.34 0.36 0.37 0.34 0.31 0.26 0.27 0.26 0.27 0.21 0.28 0.18 0.22 0.13 0.18 0.09 0.14 0.11 0.11 0.09 0.05 0.03 0.03 0.03 0.05 0.06 0.06 0.07 0.08 0.07 0.06 0.14 0.13 0.16 0.12 0.13 0.13 0.11 0.14 0.15 0.16 0.19 0.21 0.22 0.22 0.23 0.27 0.28 0.29 0.31 0.35 0.39 0.42 0.45
0.56 0.54 0.53 0.51 0.50 0.49 0.48 0.46 0.44 0.39 0.36 0.33 0.29 0.28 0.26 0.26 0.24 0.26 0.20 0.18 0.13 0.14 0.10 0.21 0.16 0.08 0.07 0.18 0.26 0.25 0.27 0.32 0.34 0.31 0.28 0.30 0.32 0.33 0.31 0.31 0.26 0.22 0.16 0.15 0.14 0.20 0.21 0.16 0.19 0.11 0.07 0.08 0.07 0.07 0.05 0.04 0.06 0.05 0.06 0.06 0.06 0.05 0.05 0.05 0.07 0.12 0.12 0.11 0.11 0.11 0.09 0.09 0.12 0.15 0.16 0.16 0.20 0.20 0.19 0.22 0.23 0.25 0.27 0.28 0.30 0.32 0.36 0.41
0.56 0.54 0.52 0.51 0.51 0.49 0.48 0.45 0.44 0.38 0.37 0.30 0.25 0.22 0.20 0.14 0.14 0.12 0.15 0.15 0.11 0.10 0.10 0.11 0.14 0.14 0.14 0.14 0.14 0.19 0.24 0.26 0.19 0.25 0.28 0.31 0.27 0.25 0.24 0.26 0.22 0.21 0.16 0.10 0.16 0.17 0.21 0.11 0.08 0.07 0.07 0.07 0.08 0.09 0.07 0.08 0.08 0.08 0.08 0.06 0.06 0.06 0.06 0.07 0.10 0.12 0.14 0.11 0.09 0.10 0.11 0.11 0.12 0.14 0.16 0.16 0.17 0.18 0.18 0.18 0.20 0.23 0.24 0.26 0.27 0.28 0.30 0.33
0.55 0.53 0.52 0.52 0.50 0.47 0.46 0.44 0.43 0.37 0.39 0.33 0.26 0.18 0.15 0.18 0.12 0.11 0.17 0.15 0.16 0.19 0.18 0.17 0.18 0.16 0.14 0.19 0.20 0.19 0.15 0.16 0.20 0.18 0.23 0.36 0.28 0.22 0.19 0.21 0.17 0.12 0.14 0.15 0.13 0.22 0.19 0.10 0.08 0.09 0.09 0.09 0.10 0.11 0.11 0.10 0.10 0.08 0.07 0.07 0.06 0.07 0.05 0.07 0.07 0.11 0.14 0.10 0.07 0.10 0.10 0.09 0.10 0.13 0.15 0.16 0.16 0.15 0.15 0.15 0.17 0.20 0.22 0.23 0.25 0.25 0.27 0.29
0.55 0.53 0.52 0.51 0.49 0.46 0.44 0.41 0.41 0.35 0.39 0.35 0.26 0.21 0.26 0.26 0.29 0.30 0.25 0.12 0.12 0.19 0.19 0.20 0.22 0.19 0.24 0.23 0.24 0.23 0.21 0.15 0.15 0.18 0.24 0.28 0.23 0.15 0.16 0.16 0.13 0.09 0.15 0.15 0.14 0.12 0.09 0.07 0.07 0.10 0.12 0.13 0.12 0.12 0.12 0.10 0.08 0.09 0.08 0.07 0.07 0.06 0.08 0.09 0.09 0.11 0.12 0.11 0.07 0.08 0.08 0.07 0.08 0.10 0.13 0.13 0.13 0.14 0.16 0.16 0.16 0.17 0.19 0.21 0.22 0.24 0.26 0.27
0.53 0.52 0.52 0.51 0.49 0.47 0.42 0.40 0.38 0.34 0.33 0.28 0.24 0.26 0.26 0.35 0.40 0.39 0.32 0.21 0.15 0.18 0.17 0.18 0.17 0.19 0.18 0.25 0.25 0.28 0.17 0.13 0.11 0.15 0.18 0.24 0.20 0.16 0.17 0.13 0.12 0.12 0.14 0.13 0.07 0.07 0.06 0.06 0.07 0.12 0.13 0.11 0.11 0.11 0.11 0.11 0.11 0.09 0.09 0.08 0.05 0.05 0.06 0.04 0.07 0.12 0.12 0.10 0.08 0.09 0.09 0.08 0.11 0.13 0.14 0.14 0.14 0.13 0.14 0.16 0.16 0.17 0.16 0.17 0.20 0.23 0.25 0.26
0.53 0.53 0.53 0.51 0.48 0.45 0.39 0.38 0.35 0.27 0.29 0.30 0.28 0.28 0.37 0.41 0.39 0.36 0.26 0.15 0.11 0.12 0.16 0.20 0.21 0.20 0.20 0.20 0.27 0.22 0.15 0.14 0.14 0.12 0.23 0.21 0.15 0.19 0.15 0.13 0.12 0.12 0.08 0.10 0.09 0.07 0.05 0.09 0.13 0.12 0.12 0.11 0.08 0.10 0.10 0.09 0.08 0.09 0.09 0.08 0.07 0.06 0.07 0.07 0.07 0.10 0.13 0.13 0.14 0.12 0.10 0.09 0.09 0.09 0.10 0.11 0.13 0.14 0.14 0.15 0.16 0.17 0.17 0.18 0.20 0.23 0.24 0.25
0.54 0.54 0.53 0.48 0.46 0.46 0.37 0.37 0.27 0.25 0.30 0.31 0.27 0.35 0.38 0.40 0.38 0.36 0.24 0.14 0.14 0.11 0.22 0.23 0.26 0.24 0.25 0.35 0.31 0.17 0.16 0.17 0.16 0.18 0.23 0.21 0.16 0.16 0.13 0.18 0.14 0.09 0.09 0.12 0.12 0.11 0.08 0.11 0.13 0.11 0.10 0.10 0.10 0.09 0.09 0.09 0.07 0.08 0.10 0.09 0.07 0.07 0.08 0.08 0.10 0.10 0.08 0.07 0.09 0.09 0.06 0.05 0.06 0.09 0.09 0.10 0.11 0.11 0.12 0.12 0.13 0.15 0.17 0.18 0.18 0.19 0.23 0.26
0.53 0.52 0.50 0.49 0.48 0.44 0.36 0.26 0.24 0.27 0.25 0.22 0.27 0.34 0.35 0.38 0.39 0.35 0.24 0.09 0.06 0.09 0.22 0.11 0.26 0.18 0.32 0.21 0.22 0.18 0.17 0.11 0.22 0.19 0.23 0.23 0.27 0.16 0.19 0.13 0.14 0.07 0.10 0.11 0.11 0.12 0.10 0.13 0.11 0.09 0.09 0.09 0.09 0.08 0.09 0.11 0.08 0.07 0.06 0.08 0.09 0.10 0.09 0.09 0.10 0.10 0.07 0.05 0.09 0.14 0.07 0.05 0.07 0.08 0.09 0.10 0.10 0.09 0.11 0.13 0.12 0.14 0.16 0.18 0.18 0.19 0.21 0.24
0.51 0.50 0.49 0.48 0.48 0.44 0.27 0.20 0.30 0.28 0.18 0.19 0.28 0.33 0.33 0.35 0.40 0.35 0.14 0.06 0.06 0.15 0.09 0.14 0.18 0.21 0.24 0.20 0.18 0.18 0.05 0.07 0.22 0.23 0.22 0.28 0.18 0.31 0.12 0.11 0.15 0.16 0.16 0.16 0.11 0.07 0.12 0.10 0.10 0.11 0.09 0.08 0.08 0.07 0.08 0.10 0.08 0.07 0.08 0.11 0.11 0.09 0.09 0.09 0.10 0.10 0.09 0.11 0.14 0.15 0.14 0.08 0.06 0.07 0.09 0.11 0.10 0.10 0.09 0.10 0.11 0.13 0.14 0.16 0.18 0.20 0.21 0.24
0.51 0.49 0.48 0.48 0.45 0.42 0.30 0.31 0.25 0.20 0.21 0.24 0.30 0.31 0.32 0.34 0.35 0.32 0.08 0.05 0.05 0.14 0.10 0.16 0.17 0.30 0.20 0.21 0.21 0.13 0.11 0.16 0.09 0.18 0.26 0.28 0.26 0.22 0.17 0.11 0.11 0.11 0.14 0.12 0.05 0.06 0.10 0.09 0.11 0.09 0.09 0.08 0.07 0.06 0.09 0.12 0.09 0.07 0.10 0.13 0.10 0.10 0.11 0.11 0.12 0.11 0.11 0.11 0.09 0.12 0.13 0.10 0.07 0.08 0.11 0.11 0.09 0.08 0.08 0.08 0.08 0.10 0.13 0.15 0.17 0.19 0.21 0.24
0.50 0.48 0.46 0.45 0.41 0.38 0.37 0.28 0.25 0.20 0.25 0.29 0.30 0.29 0.31 0.34 0.27 0.12 0.06 0.04 0.06 0.07 0.23 0.12 0.31 0.22 0.19 0.22 0.17 0.17 0.15 0.18 0.09 0.19 0.26 0.29 0.30 0.23 0.14 0.17 0.17 0.16 0.18 0.14 0.07 0.07 0.11 0.13 0.14 0.12 0.09 0.07 0.07 0.11 0.12 0.12 0.09 0.11 0.13 0.14 0.13 0.14 0.13 0.14 0.12 0.12 0.12 0.12 0.07 0.09 0.11 0.08 0.06 0.07 0.09 0.10 0.08 0.07 0.07 0.06 0.06 0.07 0.10 0.13 0.15 0.18 0.21 0.24
0.48 0.47 0.46 0.42 0.38 0.31 0.30 0.31 0.25 0.28 0.29 0.30 0.29 0.28 0.32 0.26 0.14 0.06 0.05 0.04 0.09 0.05 0.12 0.13 0.13 0.12 0.17 0.12 0.13 0.16 0.13 0.14 0.15 0.22 0.24 0.21 0.24 0.28 0.25 0.26 0.19 0.17 0.15 0.18 0.16 0.12 0.13 0.20 0.22 0.16 0.10 0.10 0.12 0.13 0.14 0.14 0.13 0.15 0.14 0.12 0.12 0.12 0.12 0.14 0.14 0.13 0.12 0.08 0.08 0.09 0.10 0.09 0.05 0.05 0.07 0.07 0.06 0.06 0.07 0.07 0.07 0.07 0.08 0.10 0.12 0.16 0.19 0.22
0.46 0.43 0.41 0.40 0.29 0.30 0.27 0.18 0.23 0.30 0.31 0.30 0.30 0.28 0.22 0.15 0.07 0.05 0.04 0.04 0.06 0.06 0.13 0.12 0.10 0.16 0.11 0.09 0.08 0.13 0.13 0.14 0.14 0.16 0.14 0.22 0.19 0.23 0.22 0.18 0.23 0.16 0.14 0.14 0.14 0.13 0.16 0.17 0.16 0.16 0.18 0.16 0.16 0.14 0.17 0.18 0.17 0.15 0.12 0.11 0.11 0.11 0.13 0.12 0.11 0.14 0.08 0.06 0.08 0.07 0.08 0.10 0.06 0.06 0.08 0.09 0.09 0.08 0.08 0.06 0.06 0.06 0.06 0.07 0.09 0.12 0.15 0.19
0.43 0.42 0.39 0.34 0.32 0.32 0.21 0.17 0.25 0.32 0.31 0.31 0.29 0.18 0.13 0.05 0.07 0.04 0.04 0.09 0.04 0.06 0.07 0.07 0.10 0.10 0.09 0.11 0.09 0.09 0.09 0.11 0.14 0.14 0.11 0.13 0.12 0.13 0.14 0.09 0.12 0.07 0.07 0.08 0.07 0.11 0.11 0.12 0.14 0.16 0.18 0.15 0.14 0.13 0.14 0.16 0.17 0.15 0.13 0.12 0.08 0.06 0.08 0.05 0.09 0.06 0.06 0.05 0.05 0.07 0.09 0.09 0.10 0.08 0.07 0.10 0.09 0.08 0.08 0.08 0.07 0.07 0.07 0.08 0.09 0.11 0.14 0.18
0.42 0.40 0.35 0.31 0.30 0.26 0.27 0.30 0.32 0.30 0.32 0.30 0.19 0.15 0.08 0.05 0.04 0.05 0.05 0.06 0.04 0.07 0.06 0.10 0.08 0.09 0.09 0.08 0.07 0.09 0.12 0.07 0.12 0.12 0.13 0.13 0.11 0.11 0.14 0.14 0.14 0.11 0.05 0.07 0.08 0.09 0.08 0.12 0.12 0.13 0.16 0.19 0.16 0.11 0.10 0.10 0.13 0.13 0.12 0.10 0.08 0.05 0.06 0.04 0.05 0.06 0.06 0.08 0.08 0.07 0.10 0.08 0.11 0.11 0.10 0.10 0.10 0.09 0.09 0.09 0.09 0.08 0.08 0.08 0.09 0.10 0.13 0.16
0.41 0.35 0.28 0.27 0.28 0.30 0.32 0.34 0.32 0.32 0.29 0.25 0.15 0.10 0.07 0.05 0.04 0.08 0.05 0.05 0.05 0.09 0.10 0.09 0.10 0.10 0.09 0.07 0.07 0.09 0.07 0.09 0.10 0.10 0.12 0.09 0.10 0.08 0.09 0.13 0.15 0.13 0.14 0.12 0.09 0.08 0.06 0.06 0.08 0.10 0.10 0.16 0.15 0.13 0.10 0.09 0.11 0.12 0.13 0.11 0.07 0.06 0.04 0.03 0.04 0.03 0.04 0.03 0.05 0.09 0.10 0.08 0.09 0.06 0.06 0.06 0.08 0.09 0.09 0.09 0.10 0.10 0.10 0.10 0.10 0.11 0.12 0.13
0.37 0.31 0.28 0.26 0.27 0.32 0.33 0.33 0.34 0.35 0.29 0.19 0.10 0.07 0.05 0.04 0.05 0.04 0.05 0.06 0.08 0.10 0.09 0.13 0.10 0.08 0.07 0.07 0.08 0.09 0.09 0.06 0.11 0.11 0.11 0.11 0.08 0.09 0.08 0.09 0.12 0.16 0.15 0.11 0.11 0.12 0.10 0.08 0.09 0.13 0.12 0.16 0.12 0.13 0.15 0.14 0.14 0.16 0.15 0.15 0.12 0.08 0.09 0.04 0.04 0.05 0.05 0.05 0.05 0.07 0.07 0.10 0.09 0.11 0.10 0.10 0.09 0.10 0.10 0.09 0.10 0.09 0.10 0.11 0.11 0.11 0.12 0.13
0.33 0.26 0.27 0.23 0.25 0.32 0.34 0.35 0.36 0.34 0.26 0.15 0.08 0.06 0.04 0.05 0.04 0.06 0.06 0.12 0.12 0.09 0.10 0.10 0.09 0.08 0.07 0.07 0.09 0.08 0.12 0.09 0.10 0.10 0.09 0.08 0.09 0.09 0.11 0.12 0.12 0.15 0.13 0.11 0.11 0.09 0.10 0.08 0.12 0.14 0.17 0.15 0.13 0.14 0.15 0.17 0.09 0.12 0.13 0.11 0.11 0.13 0.12 0.09 0.09 0.09 0.09 0.07 0.05 0.09 0.09 0.09 0.11 0.11 0.09 0.09 0.09 0.09 0.10 0.08 0.09 0.10 0.11 0.12 0.11 0.13 0.14 0.15
0.27 0.27 0.19 0.23 0.28 0.31 0.32 0.37 0.36 0.31 0.25 0.13 0.07 0.05 0.06 0.07 0.08 0.08 0.12 0.11 0.12 0.13 0.11 0.07 0.07 0.07 0.07 0.05 0.06 0.07 0.08 0.12 0.10 0.11 0.08 0.11 0.09 0.10 0.10 0.12 0.15 0.14 0.15 0.13 0.11 0.14 0.09 0.08 0.11 0.12 0.12 0.17 0.20 0.21 0.20 0.19 0.16 0.14 0.10 0.11 0.14 0.17 0.15 0.13 0.08 0.09 0.08 0.06 0.06 0.07 0.05 0.06 0.06 0.04 0.07 0.07 0.08 0.09 0.09 0.08 0.08 0.09 0.11 0.11 0.12 0.13 0.15 0.17
0.27 0.24 0.21 0.24 0.28 0.31 0.36 0.34 0.36 0.31 0.21 0.13 0.07 0.07 0.11 0.08 0.13 0.12 0.17 0.15 0.14 0.14 0.10 0.08 0.08 0.09 0.07 0.07 0.07 0.09 0.11 0.10 0.09 0.10 0.08 0.10 0.07 0.12 0.10 0.12 0.17 0.17 0.18 0.20 0.15 0.14 0.15 0.10 0.11 0.13 0.12 0.13 0.16 0.17 0.16 0.19 0.22 0.15 0.12 0.20 0.12 0.08 0.09 0.12 0.11 0.06 0.06 0.06 0.06 0.06 0.06 0.06 0.07 0.06 0.07 0.06 0.06 0.06 0.07 0.09 0.09 0.08 0.09 0.10 0.11 0.13 0.16 0.18
0.27 0.22 0.13 0.23 0.30 0.38 0.36 0.38 0.33 0.25 0.18 0.10 0.09 0.07 0.12 0.12 0.17 0.16 0.18 0.17 0.17 0.14 0.10 0.10 0.10 0.12 0.11 0.09 0.09 0.11 0.11 0.08 0.11 0.10 0.09 0.10 0.09 0.15 0.15 0.18 0.16 0.20 0.20 0.19 0.16 0.17 0.17 0.10 0.11 0.15 0.14 0.17 0.17 0.15 0.09 0.11 0.16 0.20 0.21 0.17 0.19 0.14 0.10 0.09 0.10 0.09 0.09 0.06 0.07 0.06 0.07 0.05 0.07 0.07 0.07 0.06 0.06 0.06 0.08 0.08 0.08 0.08 0.08 0.09 0.10 0.12 0.14 0.16
0.20 0.15 0.12 0.23 0.32 0.34 0.31 0.29 0.23 0.21 0.14 0.08 0.09 0.09 0.16 0.12 0.14 0.18 0.18 0.16 0.14 0.13 0.12 0.11 0.12 0.10 0.11 0.11 0.12 0.09 0.11 0.10 0.10 0.09 0.10 0.10 0.10 0.14 0.12 0.18 0.16 0.16 0.18 0.19 0.16 0.19 0.14 0.16 0.08 0.12 0.16 0.16 0.12 0.15 0.11 0.11 0.10 0.12 0.15 0.12 0.14 0.14 0.15 0.13 0.13 0.10 0.08 0.07 0.07 0.06 0.06 0.07 0.09 0.09 0.08 0.07 0.06 0.07 0.07 0.08 0.08 0.08 0.08 0.09 0.11 0.12 0.14 0.16
0.23 0.16 0.14 0.26 0.30 0.33 0.31 0.25 0.17 0.13 0.11 0.13 0.14 0.12 0.12 0.11 0.14 0.16 0.18 0.16 0.14 0.15 0.12 0.11 0.11 0.09 0.10 0.09 0.09 0.12 0.11 0.11 0.11 0.09 0.10 0.10 0.11 0.08 0.17 0.16 0.16 0.15 0.17 0.16 0.16 0.16 0.14 0.14 0.10 0.11 0.11 0.11 0.12 0.15 0.16 0.14 0.14 0.12 0.12 0.11 0.12 0.11 0.11 0.10 0.08 0.13 0.12 0.10 0.07 0.07 0.06 0.07 0.09 0.12 0.09 0.08 0.08 0.08 0.09 0.08 0.08 0.08 0.08 0.09 0.11 0.13 0.15 0.16
0.18 0.10 0.13 0.28 0.31 0.30 0.23 0.14 0.14 0.15 0.12 0.10 0.09 0.11 0.10 0.14 0.12 0.12 0.13 0.15 0.15 0.13 0.17 0.14 0.14 0.13 0.12 0.11 0.11 0.11 0.11 0.11 0.11 0.11 0.11 0.10 0.11 0.11 0.13 0.17 0.15 0.16 0.14 0.12 0.12 0.16 0.16 0.15 0.12 0.09 0.11 0.11 0.13 0.15 0.17 0.16 0.16 0.16 0.15 0.14 0.14 0.13 0.13 0.11 0.08 0.09 0.12 0.11 0.12 0.11 0.08 0.08 0.12 0.13 0.12 0.11 0.09 0.09 0.09 0.10 0.09 0.09 0.11 0.12 0.13 0.15 0.17 0.18
0.16 0.13 0.21 0.24 0.28 0.25 0.19 0.12 0.14 0.13 0.11 0.13 0.16 0.15 0.16 0.15 0.14 0.15 0.15 0.17 0.14 0.16 0.14 0.13 0.13 0.12 0.12 0.12 0.12 0.12 0.12 0.10 0.11 0.09 0.10 0.10 0.11 0.14 0.17 0.16 0.16 0.14 0.15 0.13 0.16 0.14 0.19 0.11 0.09 0.10 0.13 0.13 0.13 0.16 0.17 0.18 0.16 0.14 0.14 0.14 0.14 0.12 0.14 0.12 0.10 0.11 0.10 0.10 0.10 0.10 0.09 0.10 0.14 0.15 0.14 0.13 0.12 0.11 0.11 0.10 0.10 0.11 0.12 0.14 0.14 0.16 0.18 0.19
0.18 0.16 0.17 0.28 0.31 0.26 0.16 0.09 0.08 0.10 0.12 0.15 0.15 0.14 0.17 0.16 0.15 0.13 0.14 0.14 0.13 0.12 0.11 0.11 0.11 0.12 0.11 0.13 0.12 0.10 0.12 0.08 0.10 0.10 0.09 0.11 0.09 0.15 0.14 0.14 0.16 0.12 0.14 0.12 0.12 0.13 0.10 0.10 0.10 0.07 0.07 0.07 0.08 0.10 0.12 0.14 0.15 0.12 0.11 0.12 0.13 0.14 0.14 0.15 0.15 0.13 0.10 0.09 0.09 0.09 0.07 0.09 0.13 0.17 0.15 0.15 0.13 0.12 0.12 0.13 0.13 0.11 0.12 0.14 0.15 0.18 0.20 0.21
0.18 0.19 0.21 0.24 0.30 0.24 0.13 0.14 0.13 0.12 0.11 0.12 0.12 0.11 0.12 0.11 0.16 0.14 0.13 0.11 0.12 0.12 0.11 0.09 0.10 0.11 0.11 0.12 0.11 0.11 0.10 0.09 0.08 0.10 0.10 0.11 0.11 0.14 0.13 0.14 0.14 0.12 0.13 0.15 0.14 0.17 0.12 0.10 0.09 0.06 0.05 0.04 0.04 0.04 0.05 0.08 0.11 0.12 0.13 0.12 0.12 0.12 0.12 0.11 0.10 0.11 0.08 0.09 0.10 0.09 0.09 0.11 0.14 0.15 0.15 0.14 0.13 0.13 0.13 0.13 0.14 0.15 0.14 0.14 0.15 0.18 0.20 0.21
0.15 0.09 0.14 0.16 0.21 0.21 0.19 0.21 0.17 0.14 0.12 0.11 0.10 0.11 0.11 0.09 0.11 0.12 0.12 0.10 0.10 0.11 0.11 0.10 0.11 0.11 0.10 0.09 0.08 0.07 0.07 0.09 0.08 0.08 0.09 0.08 0.10 0.10 0.10 0.11 0.11 0.12 0.12 0.13 0.14 0.14 0.11 0.12 0.11 0.09 0.07 0.07 0.07 0.08 0.10 0.11 0.11 0.10 0.10 0.12 0.12 0.13 0.14 0.14 0.13 0.11 0.09 0.11 0.10 0.11 0.11 0.11 0.12 0.14 0.14 0.14 0.14 0.13 0.13 0.13 0.13 0.14 0.15 0.16 0.17 0.18 0.19 0.20
0.18 0.12 0.13 0.10 0.15 0.18 0.15 0.15 0.14 0.14 0.11 0.13 0.08 0.10 0.08 0.08 0.09 0.09 0.12 0.09 0.10 0.09 0.09 0.09 0.09 0.08 0.08 0.08 0.07 0.07 0.08 0.08 0.09 0.08 0.08 0.07 0.08 0.08 0.09 0.10 0.11 0.11 0.11 0.10 0.11 0.12 0.10 0.09 0.09 0.09 0.09 0.09 0.10 0.10 0.11 0.12 0.10 0.11 0.11 0.11 0.12 0.12 0.13 0.12 0.11 0.09 0.13 0.12 0.09 0.12 0.13 0.12 0.11 0.13 0.15 0.15 0.16 0.15 0.15 0.14 0.15 0.15 0.16 0.18 0.18 0.18 0.19 0.20
0.13 0.16 0.17 0.18 0.11 0.09 0.10 0.10 0.13 0.12 0.12 0.12 0.10 0.11 0.09 0.08 0.08 0.07 0.10 0.10 0.10 0.10 0.08 0.09 0.09 0.10 0.09 0.08 0.08 0.07 0.07 0.07 0.07 0.06 0.07 0.07 0.08 0.08 0.09 0.10 0.09 0.09 0.08 0.08 0.11 0.10 0.09 0.07 0.08 0.09 0.09 0.09 0.10 0.11 0.11 0.11 0.11 0.11 0.12 0.12 0.11 0.12 0.12 0.11 0.11 0.12 0.12 0.10 0.09 0.14 0.13 0.12 0.13 0.15 0.15 0.15 0.17 0.17 0.16 0.16 0.16 0.17 0.18 0.19 0.19 0.19 0.19 0.19
0.20 0.18 0.17 0.19 0.12 0.13 0.12 0.12 0.13 0.12 0.11 0.12 0.11 0.10 0.09 0.09 0.08 0.10 0.10 0.10 0.10 0.09 0.10 0.07 0.07 0.08 0.09 0.09 0.09 0.07 0.07 0.06 0.05 0.07 0.07 0.07 0.07 0.08 0.07 0.07 0.07 0.08 0.08 0.07 0.07 0.08 0.09 0.07 0.09 0.09 0.08 0.09 0.10 0.10 0.10 0.10 0.09 0.10 0.11 0.11 0.11 0.11 0.11 0.12 0.12 0.12 0.13 0.12 0.13 0.14 0.14 0.14 0.16 0.17 0.17 0.18 0.18 0.18 0.18 0.18 0.19 0.18 0.18 0.19 0.21 0.21 0.20 0.19
0.14 0.14 0.12 0.16 0.15 0.13 0.14 0.13 0.12 0.11 0.09 0.10 0.09 0.09 0.10 0.09 0.09 0.10 0.11 0.10 0.08 0.09 0.11 0.08 0.08 0.08 0.09 0.09 0.08 0.07 0.07 0.08 0.08 0.07 0.08 0.08 0.07 0.07 0.07 0.07 0.06 0.07 0.09 0.07 0.08 0.09 0.08 0.06 0.07 0.08 0.07 0.07 0.08 0.08 0.08 0.09 0.09 0.09 0.09 0.10 0.11 0.11 0.11 0.12 0.12 0.12 0.13 0.12 0.13 0.13 0.13 0.13 0.16 0.19 0.18 0.19 0.19 0.19 0.19 0.19 0.18 0.18 0.19 0.20 0.20 0.21 0.21 0.20
0.20 0.21 0.19 0.14 0.10 0.12 0.13 0.13 0.11 0.11 0.09 0.10 0.09 0.09 0.10 0.10 0.09 0.11 0.10 0.12 0.10 0.08 0.09 0.08 0.08 0.08 0.09 0.09 0.09 0.08 0.09 0.09 0.09 0.09 0.09 0.09 0.07 0.08 0.07 0.07 0.09 0.07 0.08 0.07 0.07 0.07 0.07 0.06 0.08 0.07 0.06 0.06 0.07 0.07 0.07 0.08 0.08 0.08 0.08 0.09 0.10 0.10 0.09 0.10 0.11 0.12 0.12 0.11 0.11 0.11 0.11 0.12 0.14 0.17 0.17 0.18 0.17 0.17 0.17 0.18 0.19 0.19 0.20 0.21 0.21 0.20 0.20 0.19
0.23 0.24 0.22 0.17 0.10 0.11 0.11 0.12 0.11 0.10 0.08 0.10 0.11 0.10 0.10 0.10 0.11 0.11 0.09 0.11 0.11 0.11 0.10 0.10 0.10 0.09 0.08 0.08 0.07 0.08 0.09 0.09 0.09 0.10 0.10 0.10 0.11 0.10 0.10 0.10 0.09 0.08 0.08 0.07 0.08 0.07 0.07 0.06 0.05 0.05 0.05 0.05 0.06 0.07 0.07 0.07 0.07 0.07 0.07 0.08 0.08 0.10 0.11 0.11 0.11 0.12 0.12 0.12 0.11 0.09 0.09 0.12 0.15 0.17 0.16 0.17 0.16 0.16 0.16 0.17 0.18 0.20 0.21 0.20 0.22 0.21 0.20 0.19
Wind_Speed
20 20 19 19 19 18 18 18 18 17 17 17 17 16 16 16 16 15 15 14 14 14 13 12 12 11 11 11 11 10 9 8 7 7 7 8 8 9 10 10 10 10 10 10 10 11 11 12 12 13 14 15 17 19 20 21 21 22 23 25 26 26 25 23 23 23 22 22 22 23 25 28 30 32 33 34 35 34 32 30 28 27 27 27 26 26 25 26
20 20 20 20 20 19 19 18 18 18 17 18 17 17 17 17 16 16 15 15 14 14 13 13 13 12 12 12 11 11 9 8 8 8 8 8 8 9 10 10 10 10 10 10 10 10 11 12 13 13 13 14 16 17 19 20 21 22 23 25 27 25 24 23 24 24 23 23 23 23 24 26 29 31 31 33 37 36 34 33 30 28 27 27 27 26 25 26
20 20 20 20 20 20 20 19 19 18 18 18 18 18 18 18 17 17 16 16 15 14 14 13 13 13 13 12 12 11 10 9 8 8 8 8 8 9 10 10 10 10 9 10 11 11 11 12 13 13 13 14 15 16 18 19 21 22 23 25 25 23 24 25 25 25 25 25 24 24 25 25 27 29 30 31 35 38 37 35 32 31 30 29 28 27 26 26
21 21 20 20 20 20 20 20 19 19 19 18 18 18 18 18 18 18 18 17 16 15 14 14 14 14 14 13 12 12 10 9 8 8 9 9 9 9 10 10 10 10 10 10 11 11 12 12 12 12 13 13 14 15 17 19 20 21 23 24 23 22 24 25 26 27 27 27 27 26 25 27 27 28 29 30 32 37 39 38 35 34 33 31 30 29 28 27
21 21 21 21 21 20 20 20 20 20 20 19 19 19 19 19 19 19 18 18 17 16 15 15 15 15 15 14 13 12 10 9 9 9 10 10 10 10 10 11 11 11 10 10 11 12 12 12 13 13 13 14 14 15 17 19 19 21 22 23 23 22 23 23 24 26 26 28 28 27 26 28 28 28 29 31 33 35 37 38 36 35 35 34 32 31 30 29
22 22 22 22 22 21 21 20 20 20 20 20 20 20 20 19 19 19 19 19 18 17 16 16 15 15 15 15 13 12 10 10 10 10 11 11 11 11 11 11 12 12 11 11 12 12 12 13 13 14 14 14 15 16 18 19 19 21 21 22 24 23 23 24 24 25 26 27 28 28 28 29 29 30 31 32 34 34 34 37 36 34 35 35 33 32 32 31
23 23 23 23 22 22 22 22 21 21 21 20 21 21 21 20 20 20 20 19 18 18 17 16 16 16 16 15 13 12 11 12 12 11 12 12 12 13 12 12 12 12 12 12 12 13 13 13 14 14 14 15 17 18 19 19 19 21 21 22 23 24 24 25 26 27 27 28 30 29 29 29 31 32 31 34 35 34 34 35 37 36 34 35 34 34 34 33
23 23 24 23 23 23 23 23 22 22 22 22 22 21 21 21 21 21 21 20 19 18 17 16 16 16 16 15 14 13 14 14 13 12 13 13 13 13 13 13 13 13 13 13 13 14 14 15 15 15 15 16 17 18 19 20 20 22 22 22 23 24 25 25 26 27 28 29 30 31 31 31 32 33 33 35 35 35 34 34 37 38 37 36 36 36 35 35
23 24 24 24 24 24 24 24 23 23 23 23 23 22 22 22 22 22 22 21 19 18 17 16 16 16 16 15 14 14 15 14 14 14 14 14 14 14 14 14 13 14 14 14 14 15 15 16 17 17 17 18 18 19 20 20 22 22 23 24 24 25 26 26 27 27 28 29 29 31 32 32 32 33 35 37 36 35 35 35 36 38 40 39 38 37 37 36
24 24 24 25 24 24 25 24 24 24 24 24 24 24 24 24 23 23 22 21 19 18 17 16 17 17 16 16 14 15 16 15 15 15 15 15 15 15 15 15 15 15 15 16 15 16 16 17 18 18 18 19 19 20 20 21 22 23 24 25 26 27 28 27 27 27 28 29 30 31 32 33 33 34 35 35 35 36 36 37 37 37 40 42 41 40 39 38
25 25 25 25 25 25 25 25 25 25 25 25 25 25 25 25 25 24 22 20 19 19 17 17 17 17 17 16 15 16 17 16 16 16 16 16 16 16 16 16 16 16 16 17 17 17 17 18 18 18 19 20 20 21 21 22 24 24 25 26 27 28 29 28 28 28 28 28 30 31 33 34 33 36 36 32 33 35 37 38 38 38 39 41 43 44 42 42
25 26 26 26 26 26 26 26 26 26 26 26 26 26 26 26 25 24 22 21 20 18 18 18 18 18 18 17 16 17 17 17 17 17 17 17 17 17 17 17 17 17 18 18 18 19 18 19 19 19 20 20 20 21 22 23 24 25 24 25 27 27 29 29 30 29 29 29 29 29 32 34 35 36 35 33 33 34 36 38 39 40 40 40 41 43 44 44
26 26 26 26 26 27 27 27 27 27 27 27 27 27 27 27 25 23 21 21 20 19 19 19 19 19 18 18 18 18 18 18 18 18 18 18 18 18 18 18 18 19 19 19 20 20 20 20 20 20 21 21 21 22 22 23 24 25 24 25 26 27 29 29 29 30 29 30 29 28 33 36 34 33 33 34 35 35 37 39 39 40 41 41 40 41 44 45
27 27 27 27 27 27 27 27 27 27 27 28 28 28 28 27 24 22 21 21 20 21 21 20 20 20 19 19 19 18 18 19 19 19 19 19 19 19 19 19 20 20 20 20 21 21 21 21 21 21 22 22 23 23 24 24 24 25 26 26 26 27 29 28 27 28 28 31 30 29 35 37 33 31 33 35 36 37 38 39 40 40 40 41 41 42 43 44
27 28 28 28 28 28 28 28 28 28 28 28 28 29 28 26 23 22 21 21 22 22 22 21 21 20 19 19 19 19 19 19 19 19 20 20 20 20 21 21 21 21 21 21 22 22 22 22 22 22 23 23 23 23 24 25 25 25 26 26 26 27 29 28 28 28 28 31 31 31 35 37 33 31 33 35 36 37 38 39 40 41 41 41 42 43 43 43
28 28 29 29 29 29 29 29 29 28 29 29 29 29 27 25 23 22 22 22 23 23 22 21 20 19 19 19 19 18 18 18 19 20 20 20 20 21 22 22 22 22 22 22 23 23 23 23 23 23 24 24 23 23 24 26 26 25 26 28 28 29 29 28 29 29 29 30 31 34 36 35 32 31 31 32 34 35 36 38 39 40 41 42 43 43 44 43
29 29 29 29 29 29 29 29 29 29 30 30 30 29 26 24 23 23 22 22 23 23 22 20 19 19 20 19 19 18 19 20 20 21 21 21 21 21 22 22 23 23 23 23 24 24 24 24 24 24 24 24 24 23 24 27 28 26 27 29 29 29 30 30 29 28 28 29 32 35 38 38 35 33 33 32 31 32 34 36 37 39 40 41 42 43 44 44
30 30 30 29 30 30 30 30 29 30 30 31 30 28 25 23 23 22 21 23 24 22 21 19 19 20 20 19 19 20 21 21 22 22 22 22 22 22 22 22 23 23 23 24 24 24 24 24 24 25 25 25 25 24 26 28 27 27 27 29 30 30 31 32 30 28 27 30 33 34 39 41 39 37 37 37 35 34 35 36 36 38 39 39 40 42 44 44
30 30 30 30 30 30 30 30 29 30 30 31 29 26 24 23 23 21 21 24 24 21 21 21 20 21 22 21 22 22 22 22 23 23 23 23 23 22 22 22 23 23 23 23 24 24 24 24 25 26 26 26 26 26 29 28 27 28 29 30 31 31 32 32 31 31 29 31 35 36 40 41 40 39 39 39 39 38 39 38 38 38 39 39 40 41 43 44
30 30 30 31 31 31 30 30 29 30 30 29 28 25 23 24 22 21 24 26 23 23 25 25 24 24 24 24 24 24 24 23 23 23 22 23 22 22 22 23 22 23 23 23 25 25 24 26 27 28 28 28 28 28 29 28 27 28 30 31 32 33 34 31 30 32 30 32 36 36 39 42 41 40 40 40 40 40 41 40 40 40 40 41 41 42 42 44
30 31 31 31 31 31 31 30 29 30 30 28 27 24 22 23 23 23 26 26 25 25 26 26 25 25 25 24 23 22 22 22 23 23 23 23 22 22 23 23 22 23 24 23 25 25 24 28 29 28 28 28 28 29 29 30 30 30 31 32 33 34 35 32 31 33 31 33 36 36 38 42 42 41 40 41 41 41 42 41 41 42 42 42 42 42 43 43
31 31 31 32 32 31 31 30 28 29 29 27 26 23 22 24 24 25 26 27 27 26 25 24 23 23 22 22 22 21 20 21 22 23 23 22 22 23 23 23 23 24 24 23 25 26 26 30 30 27 27 27 28 28 29 31 32 31 31 32 34 34 34 34 33 33 32 33 36 36 38 43 42 41 41 42 42 43 43 43 43 43 43 43 43 42 42 42
31 32 31 32 32 31 31 30 28 29 28 27 26 23 24 26 26 27 27 27 29 27 24 22 20 20 20 20 20 19 20 21 22 23 23 22 22 23 23 23 24 24 24 25 26 26 28 30 29 27 26 27 28 29 29 31 31 32 32 33 36 35 32 34 33 32 32 34 35 36 38 42 42 41 42 43 44 44 43 44 44 44 44 45 44 43 42 42
32 32 31 32 32 32 32 29 28 29 28 26 26 25 26 27 27 28 28 28 28 26 23 20 20 20 20 19 19 19 20 22 22 23 23 22 22 24 24 24 25 26 27 27 28 29 31 29 28 27 27 28 29 30 30 31 32 33 33 34 37 36 34 35 34 32 33 35 36 36 38 41 42 41 42 42 42 44 44 44 45 45 45 45 45 45 44 43
32 31 31 32 32 32 32 28 28 30 28 26 27 28 28 29 29 29 28 28 27 25 22 21 21 20 19 19 20 21 22 23 24 24 23 23 23 24 26 26 26 28 29 28 29 33 34 31 29 28 28 29 31 32 31 32 33 34 34 36 38 37 35 36 34 33 34 36 36 35 36 39 40 40 41 40 40 42 43 43 45 46 45 45 45 46 46 44
32 32 32 32 32 33 31 28 29 30 28 27 28 29 30 31 30 29 28 27 26 24 21 21 22 21 21 22 22 23 24 24 25 25 25 26 26 26 27 28 29 30 29 29 31 34 34 32 30 30 30 30 32 33 32 31 32 34 34 35 36 37 36 36 34 32 33 35 34 31 33 37 39 39 39 39 39 41 41 41 44 45 45 45 46 46 46 45
32 32 32 32 32 32 30 28 30 31 28 29 30 31 31 31 30 29 28 26 25 24 22 23 23 22 24 25 24 24 26 27 27 27 27 27 29 29 30 31 31 31 31 30 33 34 34 33 32 32 32 32 34 35 33 30 32 35 34 32 34 36 36 36 35 34 35 36 34 32 32 36 40 41 39 37 38 41 41 41 42 43 44 45 46 46 46 46
32 32 32 33 33 32 30 31 32 30 29 31 32 32 32 31 30 28 25 24 25 24 23 25 25 25 26 26 25 26 28 29 28 28 28 29 30 31 32 33 32 33 33 32 36 36 34 34 34 33 33 35 36 36 33 31 34 36 34 33 34 34 35 35 34 35 36 35 35 35 33 34 40 42 37 36 39 41 41 42 42 42 43 44 45 46 46 46
32 32 33 33 33 32 31 32 32 31 32 33 33 32 32 30 29 27 23 23 26 25 25 26 26 27 27 27 28 29 29 29 29 30 31 30 32 32 33 34 33 35 36 36 39 39 36 36 36 34 36 37 38 36 33 34 36 35 33 33 33 33 33 32 33 34 34 34 35 36 34 33 39 42 37 36 39 40 40 40 39 40 41 42 44 45 45 45
33 33 34 34 33 32 33 33 32 32 33 33 33 32 31 29 28 25 24 25 27 27 27 27 27 28 28 29 31 31 31 31 31 32 32 32 34 34 35 35 34 36 38 39 42 42 39 38 38 38 39 38 37 36 36 37 36 34 33 33 33 33 33 33 33 32 32 33 37 40 38 35 38 40 38 38 38 38 38 37 37 38 39 41 42 43 44 44
34 34 35 34 34 34 34 33 32 33 33 33 32 31 29 29 27 23 25 28 29 29 28 27 28 30 30 31 33 33 33 34 34 33 34 34 35 35 36 36 36 36 39 41 43 44 42 42 41 41 41 39 38 39 38 38 36 34 34 33 33 34 32 32 32 32 32 35 39 42 40 37 39 40 39 39 38 37 37 37 37 37 38 39 40 41 41 42
35 35 35 35 34 34 33 32 32 33 32 31 31 30 29 28 27 25 27 30 29 28 28 29 31 33 34 34 35 36 36 36 36 34 35 35 36 36 37 38 37 37 40 42 42 43 44 45 44 42 41 39 39 40 38 38 37 36 34 32 32 32 31 31 31 32 34 37 40 40 37 37 41 43 42 40 39 38 37 37 37 36 36 38 38 39 40 40
35 35 35 35 35 34 33 33 33 33 32 30 30 30 28 27 28 28 30 30 29 30 32 32 34 35 36 37 37 37 37 37 37 36 37 37 38 40 40 40 39 39 42 42 40 42 44 44 43 42 42 40 39 40 40 39 38 37 35 34 33 31 30 33 33 32 34 38 41 38 35 36 37 40 43 43 42 40 37 37 38 37 37 37 37 38 39 40
36 36 36 36 34 33 32 33 33 32 31 30 30 31 29 29 30 31 31 32 32 33 34 34 37 38 37 38 39 38 38 39 38 37 38 38 38 40 41 41 40 40 42 42 41 42 43 44 42 40 40 38 39 41 41 39 37 38 37 36 37 34 33 34 34 34 36 36 36 34 33 34 33 35 39 40 40 40 39 39 39 38 38 36 36 37 38 40
36 36 36 35 33 32 32 33 33 32 31 31 31 31 30 31 32 32 32 33 34 35 36 37 39 40 40 40 39 38 37 38 37 36 37 38 39 40 40 40 40 39 39 40 41 40 42 45 44 41 40 38 40 41 39 36 36 38 36 37 40 39 37 37 35 35 34 32 33 32 33 35 34 35 36 35 36 37 38 38 37 37 37 35 35 37 37 39
36 36 36 34 32 32 33 33 32 32 32 32 32 32 31 32 32 32 33 34 35 36 39 41 38 37 39 38 37 37 36 36 38 39 39 40 41 41 40 40 39 38 38 39 40 39 41 44 42 39 40 39 40 40 38 37 37 37 37 39 40 39 38 38 36 34 32 33 35 34 34 36 35 36 37 36 35 35 36 36 35 35 34 33 35 35 36 37
36 36 36 34 32 34 34 33 32 32 33 32 32 33 33 33 33 33 34 35 36 36 38 40 38 35 37 38 39 39 38 38 39 39 39 40 40 39 38 39 37 37 38 39 41 41 42 46 44 41 42 41 38 38 37 38 38 37 39 40 37 36 37 35 34 33 32 35 37 36 38 38 36 36 36 35 36 36 36 35 33 32 32 32 33 33 34 35
37 37 35 33 34 35 34 34 33 33 34 33 34 35 34 34 35 35 36 36 37 37 38 39 39 38 39 40 41 40 39 40 39 39 40 41 40 37 36 37 36 35 37 38 40 40 40 44 44 42 43 41 38 39 39 40 39 38 40 38 34 35 36 34 34 34 34 36 36 38 41 40 38 37 35 34 36 37 36 35 33 32 32 33 33 32 33 33
37 36 34 34 35 35 34 34 34 34 34 34 35 36 35 36 37 37 37 38 38 38 39 40 40 40 41 41 42 41 41 41 41 40 40 39 40 37 35 37 36 36 37 37 38 39 38 38 39 38 38 37 36 38 40 41 39 38 39 38 36 37 37 36 37 36 36 37 36 36 38 37 38 40 38 37 38 36 35 34 34 34 33 33 32 32 33 33
37 35 35 35 35 35 35 36 35 35 35 36 36 37 37 38 39 38 38 39 39 39 40 41 41 42 43 43 44 43 42 43 43 42 41 41 42 41 38 38 38 39 40 37 36 38 37 37 38 38 37 36 36 36 37 38 37 36 38 39 38 38 36 36 38 37 36 36 35 36 37 35 35 36 38 39 38 36 35 35 35 35 34 33 32 32 33 33
36 35 35 36 36 36 37 37 36 35 36 37 38 38 39 39 39 39 40 40 40 40 41 41 42 43 43 43 43 42 41 42 42 41 40 40 41 40 38 37 39 40 40 38 37 36 35 36 38 38 38 39 38 36 35 35 35 34 36 38 38 39 38 36 36 37 36 36 35 35 37 37 34 32 33 35 34 33 34 34 35 35 34 33 32 31 32 32
36 35 37 38 38 38 38 37 37 37 37 39 39 39 40 41 41 40 41 41 40 40 40 41 41 42 41 42 42 41 40 40 40 40 40 40 41 40 39 38 39 39 39 39 39 37 35 34 35 37 38 39 39 37 36 35 34 33 33 33 35 36 37 37 37 36 36 37 36 35 37 37 35 34 33 33 32 32 32 32 32 32 32 31 30 30 31 31
37 38 40 40 40 38 38 38 38 38 39 40 40 40 41 41 41 41 40 39 39 39 40 40 41 41 40 41 41 41 41 41 41 41 41 41 40 39 39 39 38 37 37 36 35 35 34 32 33 34 35 36 36 35 35 34 34 35 35 33 34 34 34 36 38 37 37 38 37 35 36 35 33 34 35 35 33 33 33 32 32 30 29 30 30 30 31 31
39 40 40 39 38 36 37 39 39 40 40 40 40 41 41 40 40 40 40 39 39 39 41 42 42 42 42 42 42 42 42 42 42 41 42 42 40 39 39 38 36 35 34 33 33 33 33 32 32 32 32 33 32 31 30 30 31 34 35 35 35 34 34 35 35 35 35 37 38 37 36 35 32 32 33 33 33 34 34 33 32 31 30 30 30 31 31 31
39 39 38 38 38 37 38 39 39 39 40 41 41 41 41 40 40 39 41 42 41 41 42 44 44 43 43 43 44 44 43 43 43 42 42 41 40 38 38 36 35 34 33 34 34 32 32 33 32 30 29 30 30 29 28 28 29 30 32 33 33 32 32 33 32 32 32 33 36 36 35 35 34 32 31 31 31 32 33 33 33 32 31 30 30 31 31 31
39 39 38 40 40 39 39 39 39 39 39 40 41 41 41 42 42 42 43 44 43 42 43 44 44 44 43 43 43 44 42 42 42 41 40 40 39 38 38 38 37 36 36 36 35 32 31 31 31 31 31 30 30 31 30 29 30 32 31 31 31 31 31 30 30 30 30 30 33 35 35 36 36 34 31 30 30 31 31 31 31 31 31 31 31 31 32 32
39 38 38 40 40 39 39 40 40 40 40 40 42 43 44 45 45 44 43 43 43 43 43 43 42 41 42 42 42 41 41 40 40 39 39 39 39 38 38 36 34 36 37 37 36 32 31 32 33 33 34 33 32 32 30 28 30 32 32 31 31 30 30 29 30 30 28 28 29 30 30 34 37 35 33 32 31 31 31 31 30 29 30 30 31 31 32 32
38 39 39 40 40 40 40 41 41 41 43 43 43 44 46 46 45 44 43 43 43 43 43 43 41 39 41 40 38 39 40 39 39 38 37 36 35 35 34 33 33 35 36 35 34 33 32 34 33 33 34 33 31 30 29 28 28 29 31 32 31 30 30 29 30 31 30 28 28 27 28 30 31 32 34 33 32 30 30 30 30 30 30 30 30 31 32 32
39 40 41 41 41 41 42 43 43 44 45 44 43 44 44 45 45 44 43 43 43 42 41 42 42 40 39 38 37 37 38 37 38 37 34 34 34 33 33 33 32 33 32 31 31 31 31 33 32 32 33 33 31 30 29 29 29 29 29 30 31 31 31 30 30 30 30 30 30 29 30 30 29 29 30 32 32 31 28 28 28 28 29 30 29 30 31 31
40 41 41 42 42 42 43 44 44 45 44 44 43 43 43 43 44 44 42 41 42 41 40 41 42 40 38 37 36 37 36 35 36 36 34 34 33 32 31 32 31 30 29 28 29 29 30 33 33 32 33 33 32 32 31 29 29 29 29 29 29 30 30 30 30 30 28 28 28 28 29 29 28 27 27 27 28 29 28 27 26 26 26 27 27 28 29 29
41 41 42 43 43 43 43 43 43 44 44 44 44 44 44 43 43 42 42 41 41 42 41 40 41 38 36 35 35 35 35 34 35 35 34 34 34 32 31 31 30 30 29 28 28 28 29 31 31 30 33 34 32 32 32 31 30 31 30 30 29 29 28 28 28 29 28 28 27 27 28 28 26 25 25 24 24 25 26 26 25 24 24 24 25 26 27 27
42 43 42 42 44 44 44 44 44 44 44 44 44 44 43 43 42 43 44 43 41 40 39 37 36 34 33 34 35 35 35 34 34 35 34 34 35 34 33 33 32 32 31 30 29 29 29 29 29 29 31 33 32 32 32 31 30 30 29 28 28 27 26 26 27 28 29 28 27 26 26 26 25 25 24 23 22 23 23 24 24 23 22 22 22 25 26 26
Wind_Direction
358 358 358 357 355 353 352 351 350 349 348 347 346 345 343 342 340 339 337 335 332 329 327 326 324 322 318 315 313 311 307 295 284 280 274 271 265 263 268 269 270 272 267 261 258 255 255 256 255 253 248 246 246 242 243 246 244 244 245 244 242 241 241 240 238 237 237 237 235 233 231 229 233 234 232 233 230 230 235 236 235 236 235 235 233 233 230 225
356 355 355 354 353 351 350 348 347 345 344 343 343 342 341 339 337 335 334 332 330 327 325 324 323 322 319 315 312 309 304 294 285 278 272 271 270 268 269 270 270 271 266 260 260 257 255 256 255 253 250 248 248 245 244 246 244 246 247 246 246 245 246 244 241 240 239 237 235 233 232 230 232 233 232 233 232 231 233 234 235 236 237 236 233 232 230 226
353 353 351 351 350 348 348 347 345 343 341 340 339 338 337 336 334 333 330 329 327 324 322 320 320 320 318 315 311 308 302 294 285 277 274 274 276 272 270 271 269 268 265 260 260 259 257 256 253 253 252 251 251 248 246 246 246 247 248 248 250 251 250 247 244 242 241 238 236 235 233 232 233 234 232 233 234 233 231 232 234 234 235 235 233 232 231 228
351 350 349 348 347 345 345 344 342 341 340 338 336 335 334 332 331 329 327 325 323 320 317 315 316 316 316 314 311 306 301 296 283 275 276 277 279 276 271 272 271 268 266 262 261 260 259 257 256 255 254 255 256 252 249 248 247 248 248 250 253 254 253 250 247 246 243 240 239 237 233 234 235 235 233 232 233 234 232 231 232 233 233 234 233 232 231 229
348 348 347 345 344 342 341 341 339 339 337 336 335 333 331 330 328 326 324 322 319 316 313 311 310 312 313 311 307 303 300 295 283 277 279 279 280 279 275 274 273 270 267 266 264 262 262 260 259 259 257 257 256 254 253 251 250 251 251 252 254 255 254 253 252 250 247 244 242 239 236 236 236 236 234 232 232 234 234 232 232 233 232 232 233 232 230 230
345 345 344 344 343 340 338 338 337 336 335 333 332 331 330 328 326 324 321 318 315 312 309 306 304 307 308 306 303 300 296 289 284 280 279 280 280 280 278 277 273 270 269 269 267 265 264 263 262 260 260 261 256 254 256 254 253 253 255 256 256 254 253 255 256 254 253 249 246 242 241 239 236 237 236 233 234 236 236 233 232 233 231 231 232 231 231 230
344 343 342 342 341 339 337 336 335 334 332 331 330 328 327 326 324 322 320 317 313 309 306 301 300 302 303 301 298 296 291 285 282 280 280 281 281 281 280 278 273 270 271 270 270 267 265 264 262 260 262 263 259 257 258 258 256 254 256 258 257 256 254 255 257 257 257 254 250 247 247 243 238 239 237 235 237 238 238 234 232 232 231 231 231 230 230 231
343 342 341 340 339 337 335 334 333 331 330 329 328 326 325 323 322 321 319 316 311 308 304 299 297 299 300 297 291 291 287 281 280 279 280 281 281 282 280 278 275 271 270 270 270 267 266 264 262 262 263 263 261 260 261 261 259 255 256 258 258 258 257 257 257 257 258 256 254 252 249 245 241 241 240 237 238 238 238 237 233 232 232 232 231 230 231 231
341 340 339 338 337 335 334 332 331 329 328 327 325 324 323 321 320 319 317 314 311 308 304 298 297 297 296 293 288 286 282 277 276 277 280 281 281 281 279 277 276 272 269 271 271 268 267 266 263 263 263 264 262 263 264 262 260 258 258 258 258 260 259 259 258 257 257 256 255 254 251 248 245 244 243 240 239 239 238 237 235 234 233 232 232 232 232 232
339 338 338 337 335 334 332 331 330 328 327 325 324 323 322 321 319 317 315 312 309 307 303 299 298 298 295 291 285 281 279 275 274 275 276 278 279 280 278 276 275 273 271 272 273 271 270 267 265 264 265 267 265 265 265 261 261 263 262 261 259 260 260 258 257 257 257 255 254 254 253 252 248 243 241 240 239 238 238 238 237 235 234 233 233 234 234 233
337 336 336 335 334 333 332 330 328 327 326 324 323 322 321 320 318 316 313 309 307 305 302 299 299 298 295 291 281 275 276 274 273 273 274 277 278 276 276 275 274 273 272 273 273 273 272 269 268 268 267 268 267 266 265 264 266 267 266 265 262 261 261 257 256 256 255 254 253 251 253 253 249 243 241 241 241 238 237 238 237 237 236 235 234 234 235 235
335 335 334 334 333 333 331 329 327 326 325 324 322 321 320 318 317 314 311 308 306 304 301 299 299 298 296 291 280 275 276 273 272 273 274 276 275 273 274 274 274 273 272 273 273 274 273 272 271 270 269 270 270 268 268 269 270 269 267 266 265 264 262 257 255 254 251 252 252 251 254 252 247 245 243 242 242 240 239 239 238 237 237 237 236 235 235 236
333 332 332 331 331 331 330 328 327 325 324 323 322 321 319 317 315 312 310 308 306 303 301 299 298 298 295 290 283 278 276 274 272 273 274 274 272 273 274 274 275 274 273 272 272 274 273 273 272 271 272 272 271 270 270 273 272 270 268 266 266 267 263 258 256 252 250 251 249 249 254 251 248 248 246 242 241 241 240 239 238 238 238 238 237 237 237 236
332 331 330 329 329 329 328 327 326 325 323 323 322 320 318 316 313 310 308 308 305 304 301 298 298 298 293 287 285 281 278 275 274 273 274 273 272 273 275 276 276 276 275 273 273 274 273 273 273 272 273 272 272 273 274 274 272 270 269 267 267 265 263 261 258 253 252 253 247 246 252 251 250 250 247 243 241 240 240 240 239 238 237 238 238 237 237 237
330 329 329 328 327 327 326 326 325 324 323 322 321 319 317 315 311 308 307 307 306 304 301 297 296 295 291 288 286 283 280 277 275 275 275 273 272 273 274 275 276 276 275 274 274 274 274 274 273 272 272 273 274 274 274 274 272 271 269 268 266 263 264 264 261 254 253 254 248 245 251 253 251 250 248 246 243 241 240 240 240 239 238 237 238 238 238 238
329 328 328 327 326 326 325 325 324 323 322 321 320 318 316 313 310 307 305 306 306 305 302 298 294 291 291 290 287 284 281 278 277 277 276 275 273 272 272 273 274 275 274 274 274 274 275 275 274 272 272 273 273 272 274 273 272 271 267 266 266 264 265 267 265 258 254 255 252 248 251 252 251 249 249 248 246 245 243 242 241 241 239 238 237 238 238 238
327 327 326 326 326 325 325 325 324 323 322 321 319 318 315 312 309 306 304 307 307 305 302 298 294 292 290 289 287 284 282 280 279 278 278 277 275 272 272 273 273 273 274 275 275 275 276 275 273 273 273 273 271 272 273 270 269 269 267 266 266 265 266 267 268 265 259 256 254 252 252 251 249 249 250 250 249 248 247 246 244 243 241 240 238 238 238 238
326 326 325 325 325 325 324 324 323 322 322 321 319 317 314 311 310 306 304 308 308 305 302 299 297 295 291 290 289 286 283 281 279 278 277 277 276 275 273 273 273 273 275 275 275 274 274 275 274 273 274 272 270 269 266 267 269 268 266 267 269 268 267 267 267 267 264 260 256 254 253 252 251 251 251 250 250 249 248 246 245 245 244 242 241 239 239 238
325 325 325 325 325 324 324 323 322 322 322 321 320 316 312 313 312 308 308 311 309 305 302 299 297 294 292 290 288 286 284 282 281 278 277 277 277 277 276 275 275 274 275 275 275 273 272 274 274 273 273 270 268 265 263 268 272 269 267 267 269 269 268 267 267 267 266 263 259 255 255 253 252 251 251 250 250 250 249 246 246 245 245 244 243 241 240 240
324 324 324 324 324 324 324 323 322 322 322 322 320 315 313 315 312 308 311 312 307 301 298 297 295 293 291 289 286 285 283 282 281 278 276 276 276 277 277 276 278 277 274 273 273 274 273 272 272 271 270 268 267 266 266 271 273 271 269 268 268 269 269 269 269 269 268 263 259 256 256 255 252 251 250 250 250 249 248 247 245 245 245 245 244 243 241 240
323 323 323 323 323 323 323 322 321 322 323 322 321 318 314 314 310 308 309 308 305 301 297 296 295 291 289 287 286 287 285 284 281 277 276 276 275 276 276 276 278 277 275 273 274 276 274 272 271 270 270 269 268 269 270 271 272 271 270 270 270 268 269 269 268 269 268 264 261 259 258 256 253 251 250 249 248 247 246 246 245 244 244 244 244 244 243 242
322 321 322 322 321 322 322 321 320 321 321 321 324 321 314 312 310 308 307 305 306 305 300 299 297 292 290 287 284 284 286 286 284 279 276 276 276 276 277 277 277 277 277 276 276 277 275 273 273 271 270 270 269 269 270 269 270 270 270 270 270 269 271 270 268 267 266 264 263 262 259 257 254 252 250 248 247 246 245 245 244 243 243 243 242 243 243 243
320 320 320 320 320 320 321 320 318 320 319 320 323 320 314 312 309 308 306 303 304 306 304 300 298 296 293 290 284 280 281 284 285 283 277 274 276 276 276 278 278 278 277 274 274 275 275 276 275 271 269 269 270 270 269 270 271 269 269 268 269 271 271 270 270 268 265 264 264 264 262 258 255 253 251 249 248 247 246 245 245 243 242 242 242 241 241 242
318 319 318 319 319 319 320 317 316 319 317 316 318 317 314 312 309 308 306 303 303 305 302 298 299 298 294 293 289 284 284 284 286 285 278 273 276 278 278 279 279 277 276 274 272 273 273 276 278 275 271 269 270 270 269 271 271 270 268 267 269 271 269 268 270 270 267 265 263 265 266 260 255 253 253 250 249 248 246 245 245 244 243 243 243 242 241 241
318 318 317 318 318 318 318 314 315 319 315 312 314 314 314 312 309 308 306 305 304 302 299 298 300 297 293 295 292 288 289 288 286 285 280 274 276 280 280 279 278 277 277 275 274 274 274 275 277 277 274 270 270 271 269 269 272 272 269 266 267 269 268 268 270 270 269 266 263 262 263 260 256 254 254 252 250 248 246 244 243 243 242 242 242 242 241 240
317 317 317 317 317 318 317 313 314 316 313 310 312 313 313 312 310 307 306 307 304 300 299 299 299 295 293 296 293 291 292 291 289 286 282 278 276 281 282 280 280 279 277 277 276 276 276 275 274 273 273 271 270 271 270 269 271 272 272 269 267 268 268 267 266 265 264 265 264 259 257 261 259 255 253 252 251 250 247 246 245 243 242 241 241 241 241 240
316 316 316 316 316 317 315 312 313 314 311 309 311 312 312 311 310 307 307 307 302 299 299 298 297 295 294 294 292 292 292 293 292 287 283 280 278 281 282 280 281 280 279 279 277 276 277 276 274 272 272 270 270 272 271 268 268 272 274 271 267 266 266 265 264 262 262 264 264 258 256 261 260 255 253 251 251 252 250 248 246 244 244 243 241 241 240 239
316 315 315 314 315 315 313 311 312 312 310 309 310 311 310 310 309 308 308 304 299 299 299 297 297 296 295 294 293 292 292 293 293 288 285 282 280 282 282 280 280 280 278 276 275 278 279 275 272 271 270 270 271 273 271 265 267 273 275 272 269 268 266 265 264 263 264 263 259 256 255 259 259 256 255 253 251 251 250 249 247 245 244 244 242 241 240 239
315 315 314 313 314 313 312 311 310 309 309 309 310 309 309 309 308 308 306 299 298 300 299 297 297 297 297 296 294 293 292 292 291 289 287 283 281 282 283 281 280 279 278 275 275 277 278 275 272 270 270 271 272 273 269 264 268 272 272 273 273 271 269 267 263 262 262 259 256 255 252 255 260 257 254 253 252 251 250 249 248 246 244 244 243 242 240 239
315 314 314 313 313 312 312 310 308 308 309 309 308 308 308 308 307 308 302 295 298 299 298 298 296 297 299 297 295 293 292 291 290 289 287 285 284 283 283 283 281 280 279 277 276 276 277 275 274 272 271 273 273 272 268 264 267 270 270 271 272 271 269 268 265 261 260 258 255 254 251 251 259 258 252 252 252 250 250 250 249 247 245 243 243 242 240 239
314 313 313 313 312 311 311 309 308 309 308 308 307 307 306 306 306 303 296 296 299 299 299 299 297 298 299 296 294 293 292 291 290 288 286 285 285 283 283 283 283 283 280 278 277 276 275 273 273 273 272 272 272 271 270 267 266 267 267 267 268 270 269 268 265 259 258 258 256 255 253 249 253 255 253 252 253 250 249 249 248 247 246 244 242 241 240 239
313 313 313 312 311 310 309 308 309 309 308 307 307 306 306 306 303 296 295 300 301 298 299 298 297 297 297 294 292 291 291 291 289 287 285 284 283 281 280 280 282 283 280 278 278 277 274 272 272 273 272 270 269 269 270 269 266 264 263 261 263 267 267 264 262 259 258 259 258 256 254 251 251 253 253 252 252 251 249 248 247 246 246 244 242 241 239 238
313 313 313 312 311 310 308 307 308 308 307 306 305 306 307 305 299 294 296 299 297 296 298 297 296 296 295 294 293 291 291 289 287 286 285 284 283 281 280 279 280 280 279 280 281 279 277 275 272 271 271 268 265 265 266 267 264 260 258 256 257 261 262 260 259 261 261 261 260 256 253 254 252 251 251 250 250 250 249 248 247 246 245 244 242 240 238 237
313 313 313 312 310 309 308 308 307 306 306 305 305 307 306 300 296 297 297 295 294 297 297 296 298 296 293 292 291 291 291 289 288 287 286 286 284 283 283 281 279 278 279 279 278 276 276 276 272 270 270 267 263 263 264 265 262 258 257 255 253 253 256 258 259 260 261 262 262 255 250 251 251 251 253 251 250 249 247 246 246 246 245 244 243 240 238 237
313 313 313 312 310 308 308 308 306 305 305 305 306 306 302 297 297 298 297 296 296 298 297 296 297 296 293 291 292 292 290 289 290 289 287 285 284 283 283 282 279 278 279 277 277 275 272 273 273 270 269 265 263 263 263 263 261 259 258 254 252 251 254 259 261 259 260 263 259 252 251 252 253 256 255 252 252 249 247 246 245 246 246 244 243 241 238 237
312 313 313 311 308 307 308 307 305 305 304 305 306 303 298 296 297 298 298 298 298 298 298 297 296 295 295 294 293 294 291 288 289 289 287 286 284 283 282 282 280 276 276 275 276 276 273 273 275 274 272 268 265 265 261 257 258 260 256 252 254 256 254 257 261 259 258 259 256 252 254 255 255 257 253 249 251 250 249 248 246 246 246 243 243 241 239 238
312 313 312 309 306 307 308 306 305 304 304 305 303 300 299 299 298 297 298 298 297 298 299 298 296 294 294 293 292 293 292 290 289 288 288 287 285 283 283 283 282 277 276 277 275 274 274 274 273 271 270 269 267 266 263 259 258 258 255 254 257 258 253 253 257 258 256 257 256 252 253 253 252 254 252 247 248 249 249 249 248 247 245 243 243 241 239 237
312 312 310 307 307 308 308 306 305 304 304 304 302 300 300 300 299 298 299 299 297 298 297 295 294 293 292 292 292 293 292 290 290 288 287 286 283 283 285 284 282 280 279 279 277 274 275 275 273 270 269 269 267 263 262 261 258 256 257 257 255 253 253 250 251 254 254 256 257 254 254 253 249 251 252 248 247 248 248 249 248 247 245 244 242 239 237 236
312 312 309 307 308 309 309 307 305 304 304 303 302 301 301 300 300 299 300 300 298 296 295 293 293 293 292 292 292 293 291 289 289 288 287 285 283 284 287 285 283 283 283 281 278 276 275 274 274 272 269 270 268 261 258 259 258 257 258 257 254 251 251 250 249 252 253 255 257 256 255 254 250 249 250 249 247 247 247 248 248 247 246 244 241 239 236 235
313 311 308 307 307 307 308 308 306 305 304 303 302 302 301 301 299 298 300 300 298 296 295 293 293 292 291 291 291 291 290 288 287 286 284 284 284 284 284 283 282 283 282 279 276 276 276 272 271 271 268 267 265 261 259 259 258 256 254 253 253 251 251 253 252 250 250 252 254 254 254 255 253 251 248 247 248 246 245 247 247 247 246 243 240 238 236 234
312 310 308 308 308 307 308 308 307 305 304 303 302 301 301 300 299 299 299 299 296 295 294 293 292 291 291 291 291 291 290 288 286 285 284 284 285 284 282 282 281 280 280 278 276 276 276 273 271 270 267 264 263 261 260 259 257 256 253 252 250 249 249 252 252 248 248 250 250 252 254 254 253 253 251 249 248 247 246 246 247 248 246 243 240 237 235 233
311 308 307 308 307 307 308 307 305 304 303 303 302 301 300 300 300 300 299 298 297 296 295 294 293 292 291 291 291 291 291 289 287 286 285 285 284 283 283 285 283 281 280 278 276 275 274 272 271 270 267 265 265 262 259 257 256 254 253 252 252 249 247 248 250 250 249 250 250 252 254 253 251 251 252 251 249 248 249 248 249 250 247 243 240 236 234 232
309 307 307 307 306 305 307 306 304 303 302 302 301 300 300 300 301 300 299 299 299 297 295 294 294 293 292 291 292 291 291 290 286 285 285 285 284 283 285 286 284 282 280 278 276 274 272 269 269 270 269 268 267 264 261 258 255 253 252 252 252 251 249 250 252 252 250 249 248 250 252 252 252 251 251 251 250 249 249 249 248 247 245 240 237 234 233 232
309 308 308 309 308 305 306 306 304 304 303 303 302 302 302 301 300 300 299 299 298 297 295 294 293 293 292 291 291 290 290 289 287 286 285 284 283 285 286 284 283 281 277 276 276 275 271 268 268 270 270 268 266 265 264 261 256 254 254 252 251 252 254 255 254 252 250 247 244 247 249 249 251 252 252 252 251 250 250 250 248 244 241 238 235 233 232 231
311 310 309 310 308 305 305 306 305 305 305 305 303 303 302 301 300 299 299 298 297 295 294 294 294 293 292 291 290 289 288 286 286 286 286 283 283 285 284 281 281 278 274 274 276 274 271 268 266 266 266 266 265 263 262 261 258 257 256 253 251 252 252 254 253 250 249 246 243 245 248 249 250 253 254 253 251 250 250 251 250 246 241 237 234 232 232 230
312 311 310 310 308 306 305 307 307 306 306 306 304 303 302 301 300 299 299 298 297 295 294 294 295 294 292 292 291 289 287 285 284 285 285 284 283 283 281 280 279 275 273 275 276 273 269 265 263 262 262 263 265 264 264 263 261 259 257 254 252 250 248 249 249 247 249 250 246 245 247 248 248 250 253 253 250 248 248 248 250 248 242 237 233 232 232 231
311 310 310 310 309 307 306 307 307 306 305 305 304 303 302 301 301 301 300 298 298 297 296 296 295 293 292 292 291 289 288 287 285 285 284 283 283 283 282 280 278 275 275 275 272 269 267 265 264 263 262 262 263 264 265 264 263 261 257 255 253 251 248 248 246 247 250 251 249 247 247 247 246 246 249 250 249 247 245 243 245 246 243 238 234 232 231 230
310 309 309 309 309 308 306 306 305 304 304 304 303 302 302 301 301 301 301 300 299 299 298 297 296 293 292 291 290 289 289 288 286 285 284 283 283 284 283 280 278 277 276 272 267 265 264 264 263 262 262 261 260 260 261 261 263 262 258 255 253 251 250 249 248 248 249 248 249 250 249 248 248 247 245 245 246 245 244 240 239 240 241 239 235 232 231 229
309 309 309 309 308 307 306 305 305 304 304 303 303 302 302 301 300 300 301 302 301 299 298 297 295 294 292 291 289 288 288 288 287 285 284 284 283 282 282 280 278 276 274 270 266 264 262 262 262 262 262 260 258 258 259 259 261 261 260 257 253 250 250 250 250 248 247 247 250 251 250 249 249 247 245 245 245 244 242 239 237 236 238 239 237 234 231 228
309 309 309 309 307 306 305 304 305 305 305 304 304 303 303 301 300 301 301 301 301 301 299 296 294 294 292 290 289 288 287 286 286 285 285 284 283 281 281 279 278 276 274 271 268 264 262 262 263 262 262 259 257 257 256 256 258 260 260 259 254 250 248 248 248 247 245 247 248 248 250 249 246 246 247 247 247 245 242 241 239 236 235 237 237 235 230 227
309 309 309 308 308 308 306 305 306 306 306 306 304 304 303 302 302 302 301 299 298 298 297 295 295 295 293 290 288 287 286 284 283 283 283 282 281 280 279 278 277 277 274 269 267 264 262 263 264 262 260 258 257 256 255 255 257 257 256 256 253 250 247 245 244 243 243 246 247 246 248 248 245 245 247 248 248 247 247 246 245 241 236 233 232 231 227 224
310 310 309 308 308 308 307 306 307 306 306 306 304 304 303 303 303 303 302 300 298 296 295 295 295 294 292 290 288 288 287 285 284 284 283 281 280 279 277 276 274 273 271 269 267 263 260 262 262 260 260 259 255 254 255 255 254 252 249 249 249 247 246 245 244 244 243 244 245 245 246 247 244 242 244 245 246 247 248 248 248 247 241 233 228 226 224 222